Phoenix, AZ

4:23 PM MST on May 29, 2017 (GMT -0700)
Phoenix Sky Harbor International

Weather History for KPHX - January, 2014

Change the Weather History Date:

Thursday, January 2, 2014

  Actual Average Record
Temperature  
Mean Temperature 61 °F 55 °F  
Max Temperature 77 °F 66 °F 81 °F (1981)
Min Temperature 44 °F 45 °F 23 °F (1919)
Degree Days  
Heating Degree Days 4 10  
Month to date heating degree days 12 20  
Since 1 July heating degree days 329 421  
Cooling Degree Days 0 0  
Month to date cooling degree days 0 0  
Year to date cooling degree days 0 0  
Growing Degree Days 10 (Base 50)    
Moisture  
Dew Point 29 °F    
Average Humidity 42    
Maximum Humidity 70    
Minimum Humidity 13    
Precipitation  
Precipitation 0.00 in 0.03 in 0.99 in (1926)
Month to date precipitation 0.00 0.06  
Year to date precipitation 0.00 0.06  
Snow  
Snow 0.00 in - - ()
Month to date snowfall 0.0  
Year to date snowfall 0.0  
Since 1 July snowfall 0.0  
Snow Depth 0.00 in    
Sea Level Pressure  
Sea Level Pressure 30.07 in    
Wind  
Wind Speed 3 mph (East)    
Max Wind Speed 12 mph    
Max Gust Speed 16 mph    
Visibility 10 miles    
Events      
T = Trace of Precipitation, MM = Missing Value Source: NWS Daily Summary

Daily Weather History Graph

Daily Weather History Graph

Search for Another Location

Airport or City:

Trip Planner

Search our weather history database for the weather conditions in past years. The results will help you decide how hot, cold, wet, or windy it might be!

Date:

Astronomy

Jan. 02, 2014 Rise Set
Actual Time 7:32 AM MST 5:32 PM MST
Civil Twilight 7:04 AM MST 5:59 PM MST
Nautical Twilight 6:33 AM MST 6:30 PM MST
Astronomical Twilight 6:03 AM MST 7:00 PM MST
Moon 8:22 AM MST (1/2) 7:26 PM MST (1/2)
Length of Visible Light 10h 54m
Length of Day
9h 59m
Waxing Crescent, 3% of the Moon is Illuminated
Jan 2
Waxing Crescent
Jan 7
First Quarter
Jan 15
Full
Jan 23
Last Quarter
Jan 30
New

Hourly Weather History & Observations

Time (MST) Temp. Windchill Dew Point Humidity Pressure Visibility Wind Dir Wind Speed Gust Speed Precip Events Conditions
12:51 AM 51.1 °F - 36.0 °F 56% 30.10 in 10.0 mi Calm Calm - N/A   Clear
1:51 AM 50.0 °F - 36.0 °F 59% 30.10 in 10.0 mi West 3.5 mph - N/A   Clear
2:51 AM 48.0 °F - 35.1 °F 61% 30.11 in 10.0 mi Calm Calm - N/A   Clear
3:51 AM 50.0 °F - 33.1 °F 52% 30.11 in 10.0 mi SE 4.6 mph - N/A   Clear
4:51 AM 45.0 °F 41.2 °F 35.1 °F 68% 30.12 in 10.0 mi East 6.9 mph - N/A   Clear
5:51 AM 45.0 °F 41.2 °F 34.0 °F 65% 30.13 in 10.0 mi East 6.9 mph - N/A   Clear
6:51 AM 44.1 °F 40.8 °F 34.0 °F 68% 30.13 in 10.0 mi East 5.8 mph - N/A   Partly Cloudy
7:51 AM 44.1 °F 42.5 °F 34.0 °F 68% 30.13 in 10.0 mi ESE 3.5 mph - N/A   Partly Cloudy
8:51 AM 51.1 °F - 33.1 °F 50% 30.15 in 10.0 mi Calm Calm - N/A   Partly Cloudy
9:51 AM 55.9 °F - 30.9 °F 39% 30.15 in 10.0 mi Calm Calm - N/A   Partly Cloudy
10:51 AM 63.0 °F - 28.9 °F 28% 30.14 in 10.0 mi Calm Calm - N/A   Partly Cloudy
11:51 AM 70.0 °F - 27.0 °F 20% 30.10 in 10.0 mi Calm Calm - N/A   Partly Cloudy
12:51 PM 72.0 °F - 21.0 °F 15% 30.06 in 10.0 mi ENE 5.8 mph - N/A   Scattered Clouds
1:51 PM 75.0 °F - 21.0 °F 13% 30.03 in 10.0 mi East 9.2 mph - N/A   Scattered Clouds
2:51 PM 75.0 °F - 21.9 °F 14% 30.01 in 10.0 mi East 8.1 mph - N/A   Scattered Clouds
3:51 PM 75.0 °F - 21.9 °F 14% 30.01 in 10.0 mi East 6.9 mph - N/A   Scattered Clouds
4:51 PM 73.9 °F - 24.1 °F 16% 30.00 in 10.0 mi ENE 4.6 mph - N/A   Mostly Cloudy
5:51 PM 72.0 °F - 24.1 °F 17% 30.00 in 10.0 mi NE 8.1 mph - N/A   Mostly Cloudy
6:51 PM 66.0 °F - 28.9 °F 25% 30.01 in 10.0 mi ENE 5.8 mph - N/A   Mostly Cloudy
7:51 PM 64.9 °F - 27.0 °F 24% 30.01 in 10.0 mi Calm Calm - N/A   Mostly Cloudy
8:51 PM 60.1 °F - 30.0 °F 32% 30.01 in 10.0 mi Calm Calm - N/A   Mostly Cloudy
9:51 PM 57.0 °F - 32.0 °F 39% 30.01 in 10.0 mi Calm Calm - N/A   Partly Cloudy
10:51 PM 57.9 °F - 28.9 °F 33% 30.01 in 10.0 mi Calm Calm - N/A   Mostly Cloudy
11:51 PM 55.0 °F - 30.9 °F 40% 30.01 in 10.0 mi Calm Calm - N/A   Partly Cloudy